User: anonymous
Location: Newark
(40.7360°N, 74.1730°W)
Time: 19:57:48
(UTC-04:00)
Language:

ISS - Orbit

View from above orbital plane
View from above orbital plane
View from above satellite
View from above satellite

Ground track
Ground track

The orbit data is extracted from the following two-line orbital elements,

1 25544U 98067A   14108.93121167  .00023261  00000-0  41499-3 0  1103
2 25544 051.6491 033.2412 0003627 303.7760 146.2620 15.49952622882135
Epoch (UTC): 18 April 2014 22:20:56
Eccentricity: 0.0003627
inclination: 51.6491°
perigee height: 414 km
apogee height: 419 km
right ascension of ascending node: 33.2412°
argument of perigee: 303.7760°
revolutions per day: 15.49952622
mean anomaly at epoch: 146.2620°
orbit number at epoch: 88213

The dashed part of the orbit path shows where the satellite is in the earth's shadow,  

DLR